Dewpoint
-8 -8 -9 -10 -12 -12 -11 -12 -12 -11 -12 -13 -13 -15 -17 -19 -20 -20 -21 -22 -22 -27 -31 -30 -29 -28 -28 -28 -26 -23 -21 -16 -11 -13 -15 -19 -17 -19 -21 -22 -21 -20 -22
-7 -9 -10 -11 -11 -11 -11 -12 -12 -12 -12 -12 -13 -15 -16 -18 -18 -19 -21 -21 -25 -29 -29 -30 -30 -29 -29 -27 -27 -24 -21 -18 -17 -18 -18 -15 -15 -18 -20 -19 -17 -19 -20
-6 -8 -10 -11 -11 -11 -11 -11 -11 -11 -12 -12 -13 -14 -16 -17 -17 -19 -19 -22 -25 -26 -28 -29 -30 -29 -28 -26 -26 -23 -20 -20 -18 -15 -13 -17 -18 -19 -19 -17 -18 -18 -18
-6 -7 -8 -9 -10 -10 -10 -10 -11 -11 -11 -12 -14 -15 -16 -15 -16 -17 -19 -22 -22 -24 -28 -30 -29 -28 -27 -25 -23 -20 -17 -15 -13 -16 -17 -17 -18 -16 -16 -18 -19 -18 -18
-5 -6 -7 -7 -9 -9 -9 -9 -10 -11 -12 -13 -13 -14 -14 -14 -15 -17 -17 -19 -21 -26 -28 -30 -29 -28 -27 -25 -20 -17 -13 -13 -16 -18 -18 -18 -15 -15 -18 -18 -16 -17 -16
-4 -5 -5 -6 -8 -8 -8 -9 -10 -11 -12 -13 -13 -13 -13 -14 -14 -16 -15 -18 -21 -26 -29 -29 -28 -29 -28 -24 -18 -16 -14 -15 -17 -18 -18 -16 -15 -17 -18 -15 -15 -15 -15
-4 -4 -4 -6 -7 -7 -7 -7 -5 -11 -11 -13 -12 -13 -13 -13 -14 -14 -15 -17 -21 -26 -28 -27 -29 -28 -25 -21 -17 -14 -15 -18 -20 -19 -16 -16 -18 -18 -16 -16 -16 -16 -16
-3 -3 -4 -6 -7 -6 -4 -5 -10 -10 -11 -13 -13 -12 -13 -13 -12 -13 -14 -17 -24 -27 -27 -25 -27 -28 -24 -17 -14 -15 -18 -20 -20 -17 -18 -20 -19 -16 -16 -16 -16 -16 -17
-3 -4 -4 -5 -5 -3 -4 -6 -8 -10 -11 -12 -12 -13 -13 -12 -12 -13 -14 -21 -25 -26 -25 -23 -25 -25 -24 -15 -15 -17 -21 -20 -19 -20 -21 -22 -21 -20 -19 -17 -18 -17 -17
-3 -3 -4 -4 -2 -3 -5 -7 -8 -10 -12 -12 -12 -12 -12 -12 -12 -14 -20 -25 -24 -26 -23 -23 -24 -22 -15 -15 -16 -21 -22 -17 -17 -19 -22 -23 -22 -21 -21 -20 -18 -18 -17
-2 -3 -3 -1 -3 -5 -7 -7 -9 -11 -12 -12 -12 -12 -12 -13 -14 -20 -24 -25 -24 -21 -19 -20 -21 -22 -20 -18 -18 -25 -18 -17 -19 -22 -23 -23 -22 -22 -21 -20 -19 -19 -18
-3 -2 -1 -3 -4 -7 -7 -10 -11 -12 -12 -12 -12 -12 -13 -15 -21 -23 -24 -24 -17 -18 -18 -18 -19 -22 -25 -27 -27 -24 -18 -23 -23 -24 -24 -23 -22 -22 -22 -21 -20 -19 -18
-2 -2 -3 -4 -6 -8 -10 -12 -13 -13 -12 -12 -13 -13 -16 -21 -22 -21 -21 -21 -18 -18 -18 -18 -20 -25 -26 -27 -27 -27 -26 -26 -25 -24 -24 -24 -23 -22 -22 -21 -21 -20 -19
-2 -3 -4 -6 -9 -11 -12 -13 -14 -14 -13 -13 -14 -16 -20 -21 -20 -20 -19 -19 -16 -17 -18 -20 -23 -25 -26 -27 -27 -26 -25 -24 -23 -23 -23 -24 -24 -24 -23 -21 -21 -20 -19
-3 -3 -7 -10 -11 -12 -13 -14 -14 -13 -13 -15 -18 -20 -20 -19 -19 -18 -15 -16 -16 -16 -17 -21 -23 -24 -25 -26 -26 -26 -25 -24 -23 -24 -24 -23 -23 -23 -24 -22 -21 -20 -19
-3 -9 -10 -11 -12 -13 -14 -14 -13 -13 -15 -17 -18 -18 -17 -16 -16 -15 -15 -15 -16 -17 -20 -22 -22 -22 -22 -22 -23 -23 -25 -24 -23 -24 -24 -23 -23 -23 -23 -23 -21 -21 -20
-9 -10 -11 -12 -13 -14 -14 -15 -16 -15 -15 -15 -14 -14 -14 -15 -15 -15 -15 -16 -18 -19 -20 -20 -20 -20 -21 -21 -21 -22 -23 -24 -24 -25 -25 -23 -23 -23 -23 -23 -21 -21 -20
-10 -12 -13 -13 -14 -16 -17 -15 -14 -15 -17 -17 -16 -16 -16 -14 -15 -17 -18 -19 -19 -19 -19 -19 -19 -20 -20 -20 -21 -22 -24 -25 -26 -26 -25 -24 -23 -23 -24 -23 -21 -21 -20
-13 -14 -15 -17 -19 -17 -16 -15 -15 -16 -16 -15 -15 -16 -16 -16 -17 -17 -18 -18 -18 -19 -18 -19 -19 -19 -20 -20 -21 -23 -25 -26 -26 -26 -25 -25 -24 -24 -24 -23 -21 -21 -20
-16 -18 -19 -19 -18 -18 -16 -16 -16 -15 -15 -16 -16 -16 -16 -17 -17 -17 -17 -17 -17 -18 -18 -19 -19 -19 -20 -20 -22 -25 -27 -28 -27 -27 -26 -25 -25 -25 -24 -22 -22 -21 -21
-21 -20 -19 -17 -16 -16 -16 -17 -16 -15 -15 -15 -15 -16 -16 -17 -17 -17 -18 -17 -18 -18 -18 -19 -19 -20 -20 -22 -24 -27 -28 -28 -28 -28 -27 -26 -26 -25 -23 -22 -22 -22 -21
-21 -22 -19 -17 -16 -16 -16 -16 -15 -15 -15 -15 -15 -15 -16 -17 -17 -17 -18 -18 -18 -19 -19 -19 -20 -20 -22 -25 -27 -28 -28 -28 -28 -28 -28 -27 -26 -23 -22 -22 -22 -22 -21
-22 -22 -21 -20 -19 -18 -16 -14 -14 -15 -15 -15 -16 -16 -16 -17 -17 -17 -17 -18 -20 -21 -19 -20 -20 -24 -26 -28 -28 -28 -28 -28 -28 -28 -28 -27 -25 -23 -22 -22 -22 -22 -21
-21 -21 -20 -17 -16 -15 -15 -14 -15 -15 -15 -15 -16 -16 -16 -16 -16 -17 -18 -19 -21 -21 -21 -23 -25 -28 -28 -28 -28 -28 -28 -28 -28 -28 -27 -27 -24 -23 -22 -22 -23 -22 -21
-21 -20 -17 -15 -15 -14 -14 -15 -15 -15 -15 -16 -16 -16 -16 -17 -17 -18 -19 -22 -24 -24 -25 -27 -28 -28 -28 -28 -28 -28 -28 -28 -28 -27 -27 -26 -24 -23 -23 -23 -23 -22 -21
-21 -20 -16 -15 -14 -15 -15 -15 -15 -15 -15 -16 -16 -16 -17 -17 -18 -20 -25 -25 -25 -27 -28 -29 -28 -28 -28 -28 -28 -28 -28 -28 -28 -27 -27 -25 -23 -23 -23 -23 -23 -21 -21
Wind_Speed
41 39 36 35 33 30 26 22 18 15 12 10 7 5 4 4 4 4 6 7 9 12 13 12 11 13 14 15 16 17 18 19 23 33 36 39 39 40 44 41 39 38 40
41 39 38 36 33 30 27 23 20 16 14 11 9 7 4 3 3 4 5 7 10 12 13 13 14 14 16 16 17 18 19 20 28 36 38 37 38 42 42 41 39 45 43
43 42 41 40 36 31 27 24 21 18 15 13 10 7 5 4 3 4 5 8 10 12 14 14 15 17 18 18 19 19 20 22 26 31 35 39 40 42 43 40 46 45 43
46 45 41 40 34 31 29 25 21 18 16 14 11 8 7 5 5 5 6 8 10 13 14 15 15 17 18 20 19 19 21 25 25 34 38 39 40 38 38 47 50 45 47
45 42 42 36 32 30 28 24 20 17 15 13 11 9 8 6 6 6 7 9 12 13 15 15 16 16 17 17 17 19 20 23 31 35 37 39 36 35 45 44 45 49 45
47 45 39 37 32 30 27 23 19 17 16 14 11 10 8 7 7 8 7 10 13 14 15 16 15 16 16 15 13 17 18 28 32 32 33 34 31 41 40 38 41 42 47
49 45 39 37 33 31 24 20 18 19 16 13 13 11 8 8 8 9 10 11 14 15 15 16 16 16 16 15 18 20 25 25 23 25 29 31 39 36 35 38 39 41 42
47 45 40 38 34 27 22 18 20 19 15 13 12 11 9 8 9 11 12 12 13 13 14 16 17 17 15 17 21 26 26 24 23 22 28 32 31 30 30 33 36 40 43
49 44 41 37 28 23 22 20 19 18 15 13 12 11 11 10 11 12 15 13 12 12 13 15 17 16 17 17 22 27 27 24 27 28 28 28 28 27 27 29 33 36 44
47 47 39 27 26 26 21 20 19 16 14 13 13 12 11 12 12 13 15 12 11 12 15 16 16 17 16 17 21 26 27 27 33 33 30 27 27 28 27 28 30 32 37
45 35 27 27 24 19 19 19 18 17 15 14 15 12 12 13 13 13 12 11 11 13 15 17 18 19 19 19 20 24 23 27 31 31 32 31 30 31 32 31 30 30 33
37 28 29 26 22 21 21 20 18 16 15 15 15 14 13 13 12 9 9 9 8 12 14 18 21 22 22 23 23 24 21 27 27 30 32 32 33 34 35 34 33 32 31
32 29 26 23 22 22 20 18 17 16 16 16 15 14 13 11 9 7 6 8 11 11 15 19 22 22 23 23 23 24 25 27 27 30 32 33 32 35 37 36 36 36 36
27 26 23 21 23 21 18 14 13 15 16 16 15 13 11 10 8 6 8 11 11 15 18 20 21 22 22 25 25 26 26 26 26 30 32 33 33 37 38 37 40 41 42
22 22 21 23 19 17 14 13 14 14 14 14 13 11 9 9 5 4 9 12 15 19 21 22 22 22 25 27 27 28 29 28 28 31 33 34 34 37 38 38 39 41 42
23 22 21 17 17 16 16 16 15 12 12 10 9 7 7 6 5 4 7 14 15 18 21 22 21 22 25 28 30 31 31 30 30 33 33 33 34 37 40 39 39 41 43
17 18 17 16 16 16 16 15 15 13 11 8 7 6 7 8 6 7 9 11 15 18 19 20 21 23 26 28 30 31 33 32 33 33 32 32 33 36 39 40 41 42 44
13 12 13 14 14 14 13 14 14 13 12 11 9 8 7 8 10 11 13 15 16 16 18 21 22 23 27 30 32 33 34 34 34 32 32 31 32 36 40 39 40 43 45
13 13 13 12 12 12 13 13 12 11 10 9 8 8 8 9 11 12 14 16 17 18 19 21 22 25 28 31 33 34 34 34 32 32 32 31 33 37 38 37 39 41 43
11 11 12 12 12 12 12 11 11 10 10 8 6 7 9 11 11 13 15 17 19 20 22 23 24 27 31 33 34 35 34 32 32 32 32 32 35 36 35 35 37 42 44
9 10 11 11 11 11 9 9 9 9 8 6 7 8 10 12 12 15 17 19 21 23 24 25 26 30 33 33 34 34 32 32 31 31 32 33 34 35 32 33 36 40 42
8 9 10 10 9 10 10 9 9 9 7 7 8 10 12 13 15 17 19 21 23 24 24 26 29 32 33 34 33 32 31 31 31 31 32 33 32 31 31 34 37 40 41
8 9 9 9 9 10 10 9 8 8 7 9 10 11 13 15 16 19 21 23 25 23 24 28 31 31 30 30 29 29 30 30 30 31 32 32 31 30 31 34 38 41 41
7 8 9 9 9 8 7 7 8 9 10 10 12 13 14 16 19 22 23 25 24 25 26 28 29 30 29 28 27 26 27 27 28 29 29 29 29 28 30 34 37 38 39
10 10 10 10 9 7 7 8 9 10 11 12 12 14 16 18 21 23 25 24 25 25 26 27 28 28 28 28 27 27 26 26 26 26 27 25 26 27 29 33 36 37 37
9 9 9 10 10 9 8 9 10 11 11 12 12 15 18 21 22 24 24 25 25 26 26 26 26 26 27 27 27 26 25 25 25 24 24 23 24 25 28 33 34 34 35
Wind_Direction
205 205 207 205 204 205 207 207 208 210 216 225 230 250 272 300 323 336 336 342 345 353 349 344 345 341 338 336 335 332 325 318 308 311 317 326 330 333 335 335 335 334 333
204 206 204 205 204 204 205 206 208 210 213 218 229 238 249 271 303 327 331 337 340 345 344 342 343 339 337 336 337 333 326 322 315 316 324 330 330 330 332 333 333 330 329
204 205 206 202 202 204 206 206 205 206 210 214 221 229 246 262 296 309 324 339 336 340 341 340 343 339 337 337 339 334 326 325 324 324 322 325 326 332 332 330 328 329 327
207 205 204 203 201 203 203 203 204 205 205 211 214 225 242 255 280 301 328 336 333 337 339 340 340 339 336 337 337 335 332 332 327 321 323 324 328 333 327 328 325 327 325
207 209 207 205 200 199 199 200 200 201 204 209 213 219 228 252 277 306 324 331 330 336 334 335 337 335 336 337 336 334 334 318 323 324 322 324 330 323 327 326 323 324 323
208 206 205 204 198 195 195 195 195 205 204 206 211 215 225 249 265 288 313 329 328 334 332 329 333 333 335 335 332 326 318 325 322 320 320 323 318 321 325 324 320 319 317
206 205 205 205 198 194 189 189 200 205 204 208 210 216 227 247 271 288 311 326 326 328 328 323 329 334 333 332 331 320 317 319 316 315 317 315 317 324 321 318 313 312 308
206 203 202 200 195 184 193 194 202 204 211 209 210 216 232 246 263 281 300 318 320 322 324 324 329 332 331 339 322 309 318 324 321 321 317 319 318 316 312 307 309 307 308
205 201 198 197 187 199 195 193 202 211 210 210 214 225 233 245 261 285 300 313 313 321 319 325 329 329 331 332 316 316 325 327 323 324 321 318 316 319 319 315 318 320 316
201 198 191 186 209 197 187 192 205 213 221 219 218 218 233 249 270 284 292 303 308 317 317 326 330 329 332 331 320 323 325 331 319 321 324 323 321 323 328 327 325 319 317
199 184 182 203 195 184 185 201 211 212 218 217 220 226 238 259 272 273 283 300 309 311 320 327 330 333 332 327 323 325 327 311 313 321 326 329 328 329 332 330 328 322 317
190 186 198 188 177 183 204 201 206 214 216 221 223 235 249 261 268 269 289 300 303 307 321 329 332 332 330 329 326 324 322 318 318 325 329 331 331 332 333 330 328 325 320
184 187 184 175 178 200 203 206 204 211 219 228 237 243 249 254 257 272 304 309 304 312 324 330 328 330 332 331 330 330 327 327 327 329 331 331 330 332 332 332 331 330 326
180 178 175 171 188 198 202 211 216 218 224 234 241 241 240 243 253 280 305 320 321 320 325 329 327 328 331 333 334 336 335 334 332 330 329 329 330 332 334 337 336 336 334
176 175 169 187 196 199 204 216 218 222 234 242 241 235 235 237 262 296 330 325 321 320 326 325 326 331 337 339 339 339 338 336 335 333 331 330 329 332 334 338 338 339 336
173 167 183 193 197 204 210 207 207 217 228 224 219 227 240 247 280 308 314 309 311 311 320 326 333 338 340 339 338 337 338 336 334 332 329 329 328 332 334 336 339 340 337
169 177 189 197 207 213 211 215 216 211 208 217 229 243 269 281 285 294 303 296 311 315 324 330 334 336 336 336 335 334 333 333 331 330 327 327 327 331 334 335 338 340 338
179 189 201 210 212 209 211 215 220 224 228 227 226 237 248 259 280 298 306 307 317 322 324 328 330 329 331 330 331 331 330 330 330 330 328 327 329 331 332 334 336 339 339
185 194 199 201 201 203 209 214 222 225 224 227 239 255 260 268 287 297 303 312 319 323 322 322 323 324 326 326 327 328 328 328 328 327 328 328 329 329 330 332 334 338 340
180 188 194 198 201 206 212 220 221 216 221 232 257 275 277 291 293 303 309 314 316 317 318 318 319 321 322 324 325 326 326 327 327 327 327 327 329 330 330 331 334 337 338
179 186 196 201 206 212 222 220 213 226 240 249 281 277 286 292 301 309 313 313 313 315 315 314 315 318 321 322 323 324 325 326 326 325 326 327 329 331 332 332 334 336 338
192 197 201 201 207 221 224 224 229 237 250 273 281 280 290 297 307 315 314 313 313 313 311 310 313 318 320 321 322 323 325 326 325 326 325 327 330 332 332 333 334 336 337
193 196 200 210 216 216 222 228 243 252 264 282 282 286 294 304 308 313 313 313 313 314 310 309 312 316 318 319 321 322 323 324 324 325 324 326 328 330 331 332 334 335 337
204 211 217 217 214 212 222 244 254 262 273 279 286 295 298 302 307 311 310 314 315 313 311 312 314 316 319 321 322 321 321 322 322 323 322 323 325 329 330 330 333 334 335
214 217 219 221 221 230 243 255 260 265 276 286 291 293 299 305 308 310 313 314 313 313 314 315 316 318 319 321 322 323 323 322 321 320 320 321 324 327 328 329 332 332 335
219 219 219 220 225 235 254 263 271 272 281 288 290 298 301 306 310 313 314 314 314 315 316 317 318 318 319 320 322 323 323 323 321 319 318 321 323 326 328 329 331 332 334
Height
1446 1452 1457 1462 1464 1468 1473 1476 1480 1482 1483 1484 1486 1486 1487 1487 1488 1488 1489 1488 1489 1485 1486 1487 1484 1483 1480 1478 1476 1474 1473 1471 1465 1458 1455 1451 1446 1441 1437 1432 1428 1422 1420
1440 1445 1449 1455 1459 1463 1467 1470 1474 1476 1479 1480 1483 1483 1484 1484 1484 1485 1484 1484 1484 1482 1483 1483 1481 1479 1476 1473 1470 1469 1468 1467 1462 1452 1449 1444 1442 1437 1432 1426 1422 1418 1413
1433 1438 1442 1445 1449 1455 1462 1465 1468 1471 1475 1477 1479 1480 1481 1483 1482 1482 1482 1479 1481 1481 1481 1479 1475 1474 1472 1469 1466 1465 1464 1462 1458 1451 1443 1440 1435 1431 1424 1421 1416 1410 1406
1430 1433 1439 1441 1444 1450 1455 1459 1463 1466 1470 1473 1472 1474 1478 1478 1481 1479 1478 1476 1478 1478 1477 1475 1473 1470 1467 1464 1462 1461 1459 1456 1453 1448 1441 1435 1431 1425 1421 1413 1404 1403 1397
1424 1432 1435 1442 1440 1445 1451 1455 1459 1464 1467 1470 1469 1471 1473 1476 1479 1477 1477 1477 1478 1474 1474 1471 1468 1466 1463 1461 1460 1458 1456 1453 1449 1443 1436 1431 1427 1421 1416 1409 1401 1394 1390
1420 1426 1433 1439 1439 1442 1447 1450 1456 1461 1464 1465 1467 1468 1468 1470 1474 1474 1474 1473 1475 1471 1471 1469 1465 1463 1459 1459 1458 1456 1454 1449 1445 1439 1434 1428 1424 1419 1412 1406 1399 1391 1380
1414 1420 1427 1436 1437 1440 1443 1449 1454 1460 1462 1462 1465 1464 1465 1467 1465 1470 1469 1469 1470 1468 1466 1466 1462 1459 1456 1455 1454 1452 1450 1447 1443 1437 1431 1426 1419 1415 1408 1401 1396 1389 1380
1411 1413 1422 1430 1434 1437 1444 1446 1452 1457 1459 1459 1460 1462 1464 1464 1466 1467 1466 1466 1465 1464 1463 1463 1458 1456 1453 1452 1450 1447 1444 1440 1437 1433 1427 1421 1416 1411 1406 1399 1390 1382 1374
1403 1411 1417 1424 1431 1437 1438 1443 1451 1455 1457 1457 1456 1459 1462 1463 1464 1463 1464 1461 1461 1458 1460 1460 1455 1453 1450 1448 1445 1441 1437 1433 1429 1426 1422 1417 1411 1406 1400 1392 1385 1376 1364
1398 1402 1412 1424 1429 1432 1435 1440 1447 1453 1455 1455 1457 1456 1458 1461 1461 1460 1460 1457 1457 1454 1456 1455 1452 1450 1446 1444 1441 1435 1431 1427 1421 1417 1414 1410 1405 1399 1394 1388 1381 1373 1365
1396 1405 1415 1418 1427 1432 1435 1438 1443 1447 1450 1453 1456 1455 1457 1459 1458 1457 1455 1452 1452 1452 1451 1450 1448 1445 1441 1439 1436 1431 1427 1424 1416 1411 1406 1400 1396 1391 1386 1381 1376 1369 1361
1399 1408 1412 1417 1423 1430 1435 1437 1439 1443 1447 1451 1452 1454 1454 1455 1456 1454 1450 1449 1448 1449 1447 1446 1444 1440 1436 1434 1430 1426 1422 1416 1411 1405 1400 1394 1388 1383 1378 1373 1367 1361 1355
1400 1404 1411 1416 1424 1431 1434 1435 1435 1440 1444 1448 1450 1449 1452 1452 1452 1450 1447 1446 1446 1446 1444 1442 1439 1435 1432 1429 1425 1421 1417 1411 1406 1400 1395 1389 1384 1378 1372 1365 1359 1352 1344
1397 1405 1410 1415 1423 1428 1431 1433 1435 1438 1442 1445 1446 1447 1447 1449 1449 1446 1445 1443 1443 1441 1440 1438 1435 1431 1428 1424 1420 1416 1412 1407 1402 1396 1391 1385 1379 1373 1366 1359 1350 1342 1332
1398 1404 1409 1417 1421 1425 1428 1432 1434 1437 1440 1441 1442 1443 1444 1446 1444 1443 1441 1441 1439 1437 1435 1433 1430 1426 1423 1419 1415 1412 1407 1403 1398 1392 1386 1379 1374 1367 1360 1354 1347 1337 1329
1398 1403 1410 1415 1419 1423 1426 1429 1431 1435 1437 1438 1439 1440 1442 1441 1441 1440 1440 1438 1437 1435 1432 1428 1425 1422 1419 1414 1410 1406 1402 1397 1393 1387 1381 1375 1369 1363 1355 1348 1342 1334 1325
1400 1404 1410 1414 1418 1421 1423 1427 1430 1432 1434 1435 1437 1438 1438 1438 1438 1438 1437 1436 1434 1431 1428 1425 1421 1418 1414 1411 1407 1402 1397 1393 1388 1382 1376 1371 1365 1359 1351 1343 1337 1329 1319
1401 1406 1410 1413 1416 1419 1422 1426 1428 1429 1431 1433 1435 1435 1436 1435 1435 1434 1433 1431 1430 1427 1424 1421 1417 1414 1410 1406 1402 1397 1392 1387 1382 1376 1371 1366 1361 1354 1346 1340 1333 1326 1316
1401 1405 1408 1411 1414 1418 1421 1423 1425 1427 1428 1430 1431 1432 1432 1432 1431 1431 1429 1427 1425 1422 1420 1417 1413 1409 1406 1401 1397 1392 1387 1382 1376 1371 1366 1361 1356 1350 1342 1336 1329 1322 1314
1401 1404 1406 1409 1412 1416 1418 1421 1422 1424 1426 1427 1428 1429 1428 1428 1428 1427 1425 1422 1420 1418 1415 1412 1408 1405 1400 1395 1391 1386 1380 1375 1370 1366 1361 1356 1351 1345 1338 1331 1325 1317 1309
1400 1403 1405 1408 1411 1414 1416 1418 1420 1421 1423 1424 1425 1425 1425 1424 1424 1422 1420 1418 1416 1413 1409 1406 1403 1399 1394 1389 1384 1379 1374 1369 1365 1360 1355 1351 1346 1339 1334 1328 1321 1314 1306
1399 1402 1404 1406 1409 1411 1413 1415 1417 1418 1419 1420 1421 1421 1421 1420 1419 1418 1415 1413 1410 1407 1403 1400 1397 1393 1388 1383 1378 1373 1368 1364 1359 1355 1350 1345 1341 1335 1330 1323 1317 1310 1302
1398 1400 1402 1405 1407 1409 1410 1412 1414 1415 1416 1417 1417 1417 1417 1416 1415 1413 1410 1408 1404 1400 1397 1394 1390 1387 1383 1378 1373 1368 1363 1359 1354 1350 1344 1340 1335 1331 1326 1319 1313 1305 1298
1396 1398 1401 1403 1405 1406 1408 1409 1411 1412 1413 1413 1414 1413 1413 1412 1410 1408 1405 1401 1398 1394 1391 1388 1384 1379 1375 1372 1368 1364 1359 1355 1350 1345 1341 1336 1331 1327 1322 1316 1310 1303 1295
1395 1396 1398 1400 1402 1404 1405 1407 1408 1409 1410 1410 1410 1409 1408 1407 1405 1402 1399 1395 1392 1389 1385 1381 1377 1373 1369 1365 1362 1358 1354 1350 1346 1341 1336 1333 1328 1324 1319 1313 1306 1299 1292
1392 1394 1396 1397 1399 1401 1403 1404 1405 1405 1406 1406 1406 1405 1403 1401 1399 1396 1392 1389 1386 1382 1379 1375 1372 1367 1364 1360 1356 1352 1349 1345 1341 1337 1332 1329 1325 1321 1316 1310 1304 1297 1289